Regional Weather Roundup
Issued by NWS

Home | Current Version | Previous Version | Graphics & Text | Print | Product List | Glossary On
Versions: 1 2 3 4 5 6 7 8 9 10 11 12 13 14 15 16 17 18 19 20 21 22 23 24 25 26 27 28 29 30 31 32 33 34 35 36 37 38 39 40 41 42 43 44 45 46 47 48 49 50
000
ASUS43 KBIS 280859
RWRND

NORTH DAKOTA REGIONAL WEATHER ROUNDUP
NATIONAL WEATHER SERVICE BISMARCK ND
400 AM CDT THU AUG 28 2014

NOTE: "FAIR" INDICATES FEW OR NO CLOUDS BELOW 12,000 FEET WITH NO
SIGNIFICANT WEATHER AND/OR OBSTRUCTIONS TO VISIBILITY.


NDZ001>003-009>011-017-281000-
NORTHWEST NORTH DAKOTA

CITY           SKY/WX    TMP DP  RH WIND       PRES   REMARKS
WILLISTON      CLEAR     64  58  80 S6        29.90F
MINOT          PTCLDY    63  60  90 S9        29.91F
$$

NDZ018>021-031>035-040>046-281000-
SOUTHWEST NORTH DAKOTA

CITY           SKY/WX    TMP DP  RH WIND       PRES   REMARKS
BISMARCK       PTCLDY    61  59  93 SE6       29.97F
GARRISON         N/A     63  63 100 S6        29.96S
HETTINGER ARPT FOG       56  54  93 CALM      30.00F VSB 1/4
$$

NDZ004>008-012>016-024-026-027-054-281000-
NORTHEAST NORTH DAKOTA

CITY           SKY/WX    TMP DP  RH WIND       PRES   REMARKS
GRAND FORKS    CLOUDY    61  58  90 S8        30.00F
DEVILS LAKE    CLEAR     63  55  77 S10       29.97S
$$

NDZ022-023-025-028>030-036>039-047>053-281000-
SOUTHEAST NORTH DAKOTA

CITY           SKY/WX    TMP DP  RH WIND       PRES   REMARKS
FARGO          MOCLDY    65  59  81 SE12      30.01F
$$




USA.gov is the U.S. government's official web portal to all federal, state and local government web resources and services.